Flag for U.S.A. Weather past 2 weeks in Minneapolis, Minnesota, U.S.A.

33 °F

Light snow. Fog.

Feels Like: 24 °F
Forecast: 26 / 35 °F
Wind: 12 mph from East

Location: Minneapolis-St. Paul International Airport

Current Time: Dec 1, 2015 at 12:03:11 AM

Latest Report: Nov 30, 2015 at 11:00 PM

Visibility: 2 mi

Pressure: 29.77 "Hg

Humidity: 92%

Dew point: 31 °F

Location of MinneapolisLocation

Historic Weather in Minneapolis — Graph


Minneapolis temperature yesterday

Maximum temperature yesterday: 34 °F (at 1:53 PM)
Minimum temperature yesterday: 28 °F (at 5:04 AM)
Average temperature yesterday: 32 °F

Past Weeks' High & Low Weather Summary

High58 °F (Nov 18, 5:53 AM)100% (Nov 18, 12:53 AM)30.67 "Hg (Nov 18, 12:53 AM)
Low14 °F (Nov 28, 7:53 AM)38% (Nov 19, 9:53 PM)29.08 "Hg (Nov 18, 1:53 PM)
Average34 °F75%30.06 "Hg
* Reported Nov 15 9:53 PM — Nov 30 9:53 PM, Minneapolis, Weather by CustomWeather, © 2015

Note: Actual official high and low records may vary slightly from our data, if they occured in-between our weather recording intervals... More about our weather records


Minneapolis weather history for previous 24 hours

Time TempWeatherWind HumidityBarometerVisibility
9:53 PM
Mon, Nov 30
33 °FDrizzle. Fog.13 mph92%29.83 "Hg2 mi
8:58 PM33 °FLight freezing rain. Fog.10 mph92%29.85 "Hg4 mi
7:53 PM33 °FLight snow. Fog.13 mph92%29.90 "Hg5 mi
6:53 PM33 °FLight snow. Fog.12 mph92%29.92 "Hg2 mi
5:53 PM34 °FLight snow. Fog.10 mph88%29.96 "Hg1 mi
4:53 PM33 °FLight snow. Fog.10 mph92%30.00 "Hg3 mi
3:58 PM34 °FLight snow. Mostly cloudy.10 mph82%29.99 "Hg2 mi
2:53 PM34 °FMostly cloudy.9 mph79%30.03 "Hg10 mi
1:53 PM34 °FMore clouds than sun.9 mph82%30.06 "Hg10 mi
12:53 PM33 °FDrizzle. Mostly cloudy.10 mph82%30.10 "Hg10 mi
12:03 PM32 °FMostly cloudy.10 mph82%30.11 "Hg10 mi
11:53 AM32 °FOvercast.12 mph82%30.15 "Hg10 mi
10:53 AM31 °FOvercast.9 mph85%30.17 "Hg10 mi
9:53 AM31 °FOvercast.5 mph85%30.19 "Hg10 mi
8:53 AM30 °FLight snow. Ice fog.5 mph92%30.21 "Hg1 mi
7:53 AM30 °FLight snow. Ice fog.8 mph92%30.22 "Hg5 mi
6:53 AM29 °FLight snow. Ice fog.8 mph96%30.23 "Hg3 mi
6:03 AM29 °FLight snow. Ice fog.6 mph96%30.22 "Hg1 mi
5:53 AM29 °FLight snow. Ice fog.6 mph93%30.26 "Hg1 mi
5:04 AM28 °FHeavy snow. Ice fog.7 mph96%30.24 "Hg0 mi
4:53 AM29 °FSnow. Ice fog.10 mph93%30.27 "Hg1 mi
3:53 AM31 °FOvercast.7 mph76%30.27 "Hg10 mi
2:53 AM31 °FOvercast.7 mph73%30.28 "Hg10 mi
1:53 AM31 °FOvercast.6 mph73%30.29 "Hg10 mi
12:53 AM31 °FOvercast.5 mph76%30.30 "Hg10 mi
Weather by CustomWeather, © 2015

See weather overviewHow to use our weather pages